Cheboygan, MI

8:52 PM EDT on July 25, 2017 (GMT -0400)
Cheboygan

Weather History for KSLH - April, 2014

Change the Weather History Date:

Wednesday, April 30, 2014

  Actual Average (KMCD) Record (KMCD)
Temperature  
Mean Temperature 44 °F -  
Max Temperature 51 °F 52 °F 71 °F (2013)
Min Temperature 38 °F 35 °F 30 °F (2003)
Degree Days  
Heating Degree Days 20    
Moisture  
Dew Point 42 °F    
Average Humidity 100    
Maximum Humidity 100    
Minimum Humidity 99    
Precipitation  
Precipitation 0.00 in - - ()
Sea Level Pressure  
Sea Level Pressure 29.77 in    
Wind  
Wind Speed 5 mph (ENE)    
Max Wind Speed 10 mph    
Max Gust Speed -    
Visibility 2 miles    
Events Fog , Rain , Snow    
Averages and records for this station are not official NWS values.
T = Trace of Precipitation, MM = Missing Value Source: NWS Daily Summary

Daily Weather History Graph

Daily Weather History Graph

Search for Another Location

Airport or City:

Trip Planner

Search our weather history database for the weather conditions in past years. The results will help you decide how hot, cold, wet, or windy it might be!

Date:

Astronomy

Apr. 30, 2014 Rise Set
Actual Time 6:27 AM EDT 8:44 PM EDT
Civil Twilight 5:54 AM EDT 9:16 PM EDT
Nautical Twilight 5:14 AM EDT 9:57 PM EDT
Astronomical Twilight 4:28 AM EDT 10:43 PM EDT
Moon 7:26 AM EDT (4/30) 10:24 PM EDT (4/30)
Length of Visible Light 15h 22m
Length of Day
14h 16m
New Moon, 2% of the Moon is Illuminated
Apr 30
New Moon
May 6
First Quarter
May 14
Full
May 21
Last Quarter
May 28
New

Hourly Weather History & Observations

Time (EDT) Temp. Windchill Dew Point Humidity Pressure Visibility Wind Dir Wind Speed Gust Speed Precip Events Conditions
12:16 AM 40.5 °F 35.1 °F 40.5 °F 100% 29.78 in 4.0 mi East 8.1 mph - N/A   Overcast
12:35 AM 41.7 °F 36.7 °F 41.7 °F 100% 29.78 in 2.5 mi East 8.1 mph - N/A   Overcast
12:55 AM 44.1 °F 39.5 °F 44.1 °F 100% 29.77 in 3.0 mi East 8.1 mph - N/A   Overcast
1:15 AM 43.2 °F 39.7 °F 43.2 °F 100% 29.76 in 2.0 mi NE 5.8 mph - N/A   Unknown
1:35 AM 40.5 °F 38.4 °F 40.5 °F 100% 29.75 in 1.5 mi NE 3.5 mph - N/A   Unknown
1:56 AM 39.7 °F - 39.7 °F 100% 29.77 in 1.2 mi Calm Calm - N/A   Overcast
2:15 AM 39.2 °F - 39.2 °F 100% 29.79 in 1.2 mi Calm Calm - N/A   Overcast
2:35 AM 38.8 °F - 38.8 °F 100% 29.78 in 1.0 mi Calm Calm - N/A Snow Light Snow
2:56 AM 39.0 °F - 39.0 °F 100% 29.78 in 2.5 mi Calm Calm - N/A Rain Light Rain
3:15 AM 39.9 °F - 39.9 °F 100% 29.77 in 1.5 mi Calm Calm - N/A   Unknown
3:36 AM 40.5 °F - 40.5 °F 100% 29.77 in 1.8 mi Calm Calm - N/A   Overcast
3:56 AM 41.0 °F - 41.0 °F 100% 29.76 in 1.2 mi Calm Calm - N/A Rain Light Rain
4:15 AM 41.0 °F - 41.0 °F 100% 29.76 in 1.5 mi Calm Calm - N/A   Overcast
4:36 AM 41.0 °F - 41.0 °F 100% 29.77 in 1.5 mi Calm Calm - N/A   Overcast
4:55 AM 41.2 °F 39.2 °F 41.2 °F 100% 29.77 in 1.8 mi ENE 3.5 mph - N/A   Overcast
5:16 AM 42.8 °F 40.1 °F 42.8 °F 100% 29.77 in 2.0 mi ESE 4.6 mph - N/A   Overcast
5:36 AM 43.7 °F 40.3 °F 43.7 °F 100% 29.78 in 1.8 mi East 5.8 mph - N/A   Overcast
5:55 AM 42.1 °F 39.2 °F 42.1 °F 100% 29.78 in 1.0 mi East 4.6 mph - N/A   Overcast
6:16 AM 41.7 °F 38.0 °F 41.7 °F 100% 29.78 in 0.8 mi ENE 5.8 mph - N/A   Overcast
6:35 AM 40.6 °F - 40.6 °F 100% 29.78 in 0.5 mi Calm Calm - N/A Fog Fog
7:16 AM 40.8 °F 37.8 °F 40.8 °F 100% 29.78 in 0.2 mi ENE 4.6 mph - N/A Fog Fog
7:35 AM 41.0 °F 39.0 °F 41.0 °F 100% 29.78 in 0.2 mi NE 3.5 mph - N/A Fog Fog
7:55 AM 41.0 °F 38.0 °F 41.0 °F 100% 29.77 in 0.2 mi NE 4.6 mph - N/A Fog Fog
8:16 AM 40.1 °F 38.0 °F 40.1 °F 100% 29.79 in 0.2 mi ENE 3.5 mph - N/A   Unknown
8:35 AM 40.5 °F 38.4 °F 40.5 °F 100% 29.79 in 0.2 mi NE 3.5 mph - N/A Fog Fog
8:56 AM 43.7 °F 39.7 °F 43.7 °F 100% 29.78 in 0.5 mi East 6.9 mph - N/A Fog Fog
9:15 AM 44.1 °F 41.5 °F 44.1 °F 100% 29.79 in 0.8 mi East 4.6 mph - N/A   Overcast
9:36 AM 44.6 °F 42.2 °F 44.6 °F 100% 29.79 in 2.0 mi East 4.6 mph - N/A   Overcast
9:55 AM 45.1 °F 41.4 °F 45.1 °F 100% 29.79 in 4.0 mi East 6.9 mph - N/A   Overcast
10:15 AM 46.0 °F 43.1 °F 46.0 °F 100% 29.78 in 3.0 mi East 5.8 mph - N/A   Overcast
10:36 AM 45.0 °F 41.2 °F 45.0 °F 100% 29.78 in 3.0 mi NE 6.9 mph - N/A   Overcast
11:16 AM 43.7 °F 42.1 °F 43.7 °F 100% 29.79 in 2.5 mi NE 3.5 mph - N/A   Overcast
11:36 AM 46.4 °F 45.2 °F 46.4 °F 100% 29.79 in 3.0 mi ENE 3.5 mph - N/A   Overcast
11:55 AM 47.3 °F - 47.3 °F 100% 29.78 in 3.0 mi Calm Calm - N/A   Overcast
12:16 PM 47.5 °F - 47.5 °F 100% 29.79 in 2.5 mi Calm Calm - N/A   Overcast
12:35 PM 46.9 °F - 46.9 °F 100% 29.79 in 2.0 mi Calm Calm - N/A Rain Rain
12:55 PM 49.1 °F - 49.1 °F 100% 29.79 in 2.0 mi ESE 4.6 mph - N/A   Drizzle
1:16 PM 49.8 °F - 49.8 °F 100% 29.79 in 3.0 mi SE 10.4 mph - N/A Rain Light Rain
1:35 PM 50.4 °F - 50.4 °F 100% 29.79 in 4.0 mi SE 10.4 mph - N/A Rain Light Rain
1:55 PM 50.9 °F - 50.5 °F 99% 29.79 in 4.0 mi SE 9.2 mph - N/A Rain Light Rain
2:16 PM 51.1 °F - 51.1 °F 100% 29.78 in 4.0 mi SE 6.9 mph - N/A Rain Rain
2:35 PM 49.3 °F - 48.9 °F 99% 29.79 in 2.5 mi ENE 4.6 mph - N/A   Light Drizzle
2:55 PM 48.6 °F - 48.6 °F 100% 29.78 in 2.5 mi NE 4.6 mph - N/A Rain Light Rain
3:16 PM 51.1 °F - 51.1 °F 100% 29.78 in 3.0 mi ESE 4.6 mph - N/A   Overcast
3:35 PM 47.1 °F - 47.1 °F 100% 29.78 in 1.5 mi North 3.5 mph - N/A   Overcast
3:56 PM 43.2 °F 40.5 °F 43.0 °F 99% 29.78 in 1.5 mi NE 4.6 mph - N/A   Overcast
4:16 PM 42.3 °F 38.6 °F 42.3 °F 100% 29.77 in 1.8 mi NNE 5.8 mph - N/A   Overcast
4:35 PM 43.7 °F 42.1 °F 43.7 °F 100% 29.77 in 2.0 mi NNE 3.5 mph - N/A   Overcast
5:16 PM 40.6 °F 36.7 °F 40.6 °F 100% 29.77 in 2.0 mi NNE 5.8 mph - N/A   Overcast
5:35 PM 40.1 °F 36.9 °F 40.1 °F 100% 29.77 in 1.8 mi NNE 4.6 mph - N/A   Overcast
5:56 PM 40.1 °F 35.3 °F 40.1 °F 100% 29.77 in 1.2 mi NNE 6.9 mph - N/A   Unknown
6:15 PM 39.2 °F 33.0 °F 39.2 °F 100% 29.77 in 1.5 mi NE 9.2 mph - N/A   Overcast
6:35 PM 39.2 °F 32.5 °F 39.2 °F 100% 29.76 in 1.5 mi ENE 10.4 mph - N/A   Light Drizzle
6:56 PM 38.7 °F 32.4 °F 38.7 °F 100% 29.76 in 1.2 mi NE 9.2 mph - N/A   Overcast
7:15 PM 38.8 °F 33.2 °F 38.8 °F 100% 29.76 in 1.2 mi ENE 8.1 mph - N/A   Overcast
7:35 PM 39.2 °F 33.6 °F 39.2 °F 100% 29.76 in 1.5 mi NE 8.1 mph - N/A   Overcast
7:56 PM 39.2 °F 34.2 °F 39.2 °F 100% 29.76 in 1.2 mi NE 6.9 mph - N/A   Overcast
8:15 PM 39.2 °F 37.0 °F 39.2 °F 100% 29.76 in 1.2 mi NE 3.5 mph - N/A   Overcast
8:36 PM 39.2 °F 35.9 °F 39.2 °F 100% 29.76 in 1.2 mi NE 4.6 mph - N/A   Overcast
8:56 PM 39.4 °F 37.2 °F 39.4 °F 100% 29.76 in 2.0 mi NE 3.5 mph - N/A   Overcast
9:15 PM 39.7 °F - 39.7 °F 100% 29.76 in 2.0 mi Calm Calm - N/A Rain Light Rain
9:36 PM 39.4 °F 36.1 °F 39.4 °F 100% 29.76 in 1.8 mi NE 4.6 mph - N/A Rain Light Rain
9:55 PM 39.0 °F 34.0 °F 39.0 °F 100% 29.76 in 1.5 mi ENE 6.9 mph - N/A Rain Light Rain
10:16 PM 39.0 °F 33.4 °F 39.0 °F 100% 29.76 in 1.5 mi ENE 8.1 mph - N/A Rain Light Rain
10:36 PM 38.7 °F 31.8 °F 38.7 °F 100% 29.75 in 1.0 mi ENE 10.4 mph - N/A   Overcast
10:56 PM 39.0 °F 32.3 °F 39.0 °F 100% 29.75 in 1.2 mi ENE 10.4 mph - N/A   Overcast
11:15 PM 39.2 °F 34.2 °F 39.2 °F 100% 29.75 in 1.8 mi ENE 6.9 mph - N/A   Overcast
11:36 PM 39.7 °F 34.9 °F 39.7 °F 100% 29.74 in 2.5 mi East 6.9 mph - N/A   Overcast
11:56 PM 40.1 °F 36.1 °F 40.1 °F 100% 29.73 in 0.8 mi East 5.8 mph - N/A   Overcast